CZ-6A DEB, 61843

Orbit data source: Space-Track

CZ-6A DEB, 61843 is space debris in LEO originally from a launch on Tue, 06 Aug 2024 UTC launched from the Taiyaun Space Center, China (TSC). Debris objects in space refer to the collection of defunct objects orbiting the Earth. Examples of debris include non-operational satellites, rocket bodies, and fragments generated from explosions, collisions, or faulty payload assembly.

Loading next visibility...
Identifier
61843, 2024-140ADK
Orbit
LEO
Country
Flag of CNCN / PRC
Related business
Manufacturer
SAST
Mission
Spacecraft
Bus & Motor
Unknown
Mass
Unknown
Launch date (UTC)
2024-08-06 (2 years ago)
Launch vehicle
Unknown
Launch site
Taiyaun Space Center, China (TSC)
Object type
Payload
Rocket body
Debris
Shape & HBR
Unknown shape, 0.1 m
Radar Cross Section
Small (<0.1 m²)

Expand to show TLE details & history
Last TLE update: 1 day ago

TLE from 1 day ago
0 CZ-6A DEB
1 61843U 24140ADK 26170.61579151  .00002621  00000-0  71513-3 0  9995
2 61843  88.3408 217.3027 0095953   5.9317 354.2997 14.44362422 95996
Epoch: 2026-06-19T14:46Z
TLE epoch observation values (Epoch: 2026-06-19T14:46:44.386Z)
Latitude
-0.00005°
Longitude
87.77554°
Altitude
679.196 km
Speed
7.553 km/s
True Right ascension
14h 29m 12s
True Declination
0° 00' 00"
Sunlit
Object was in full shadow at epoch
Visualization orbit readout
Latitude
Unknown
Longitude
Unknown
Altitude
Unknown
Speed
Unknown
Apparent Right ascension
Unknown
Apparent Declination
Unknown
Sunlit
N/A
Visualization observer readout
Local Sidereal Time
07:21:35
Azimuth
Unknown
Elevation
Unknown
Doppler factor
Unknown
Orbital elements
Apogee altitude
809.353 km
Perigee altitude
672.732 km
Semi-major axis
7,119.179 km
Eccentricity
0.0096
Inclination
88.3408°
RAAN
217.3027°
Arg. of periapsis
5.9317°
True anomaly
354.18917°
Mean anomaly
354.2997°
Eccentric anomaly
354.24457°
Mean motion
3.61325 °/min
Orbital period
99.63 mins
BSTAR
0.00071513
Loading maneuver chart data...
Computing Atmospheric mass density...
Loading historical data...
Loading historical data...
Loading historical data...
Loading historical data...
Loading historical data...
Loading historical data...
Loading historical data...

Documentation

Showing up to 5 results
|